Home > Weather > Toccoa > Past weeks

Flag for USA Past Weather in Toccoa, Georgia, USA — Yesterday and Last 2 Weeks

Now
77 °F

Clear.


Feels Like: 79 °F
Forecast: 76 / 93 °F
Wind: No wind

Location: Clemson-Oconee County Airport

Current Time: Jul 27, 2016 at 7:47:05 AM

Latest Report: Jul 27, 2016 at 6:54 AM


Visibility: 10 mi

Pressure: 30.01 "Hg

Humidity: 77%

Dew Point: 69 °F

Location of ToccoaLocation

Past Weather in Toccoa — Graph

°F

Toccoa Temperature Yesterday

Maximum temperature yesterday: 99 °F (at 4:54 PM)
Minimum temperature yesterday: 76 °F (at 4:54 AM)
Average temperature yesterday: 87 °F

High & Low Weather Summary for the Past Weeks

 TemperatureHumidityPressure
High100 °F (Jul 14, 4:54 PM)91% (Jul 16, 5:54 AM)30.26 "Hg (Jul 16, 5:54 AM)
Low72 °F (Jul 12, 5:54 AM)28% (Jul 14, 3:54 PM)29.93 "Hg (Jul 25, 5:54 PM)
Average83 °F65%30.08 "Hg
* Reported Jul 12 5:54 AM — Jul 27 5:54 AM, Toccoa, Weather by CustomWeather, © 2016

Note: Actual official high and low records may vary slightly from our data, if they occured in-between our weather recording intervals... More about our weather records

Advertising

Toccoa Weather History for the Previous 24 Hours

Scroll right to see more
 ConditionsComfort  
Time TempWeatherWind HumidityBarometerVisibility
5:54 AM
Wed, Jul 27
77 °FClear.3 mph77%29.99 "Hg10 mi
4:54 AM79 °FClear.3 mph72%29.99 "Hg10 mi
3:54 AM80 °FClear.7 mph67%29.99 "Hg10 mi
2:54 AM80 °FClear.8 mph67%29.99 "Hg10 mi
1:54 AM82 °FClear.5 mph58%30.00 "Hg10 mi
12:54 AM83 °FClear.No wind63%30.01 "Hg10 mi
11:54 PM
Tue, Jul 26
86 °FClear.3 mph53%30.01 "Hg10 mi
10:54 PM85 °FClear.No wind55%30.00 "Hg10 mi
9:54 PM88 °FClear.5 mph46%29.98 "Hg10 mi
8:54 PM91 °FSunny.3 mph42%29.96 "Hg10 mi
7:54 PM94 °FOvercast.6 mph40%29.96 "Hg10 mi
6:54 PM97 °FPassing clouds.10 mph34%29.94 "Hg10 mi
5:54 PM98 °FPartly sunny.10 mph34%29.94 "Hg10 mi
4:54 PM99 °FPassing clouds.7 mph33%29.95 "Hg10 mi
3:54 PM98 °FBroken clouds.7 mph38%29.97 "Hg10 mi
2:54 PM96 °FPassing clouds.5 mph38%29.98 "Hg10 mi
1:54 PM96 °FPassing clouds.3 mph46%30.00 "Hg10 mi
12:54 PM93 °FPassing clouds.5 mph52%30.03 "Hg10 mi
11:54 AM90 °FPassing clouds.No wind56%30.04 "Hg10 mi
10:54 AM87 °FSunny.No wind63%30.04 "Hg10 mi
9:54 AM83 °FScattered clouds.3 mph74%30.04 "Hg10 mi
8:54 AM80 °FPassing clouds.No wind85%30.03 "Hg9 mi
7:57 AM78 °FFog.No wind90%30.07 "Hg3 mi
Weather by CustomWeather, © 2016

See weather overviewHow to use our weather pages